sat.trackr.live / text

‹ back to catalog

ONEWEB-0006

NORAD 44061 · 2019-010E

PAYLOAD ACTIVE UNKNOWN

§ Identity

Operator
Country
UK
Launch date
2019-02-27
Launch site
FRGUI
Launch vehicle
Mass (kg)
RCS (m²)

Purposes: comms

External: N2YO · Heavens-Above · Gunter

§ Orbital elements

Epoch: 2026-09-03T10:53:34.958112Z

Period
109.46 min
Inclination
87.8971°
Eccentricity
0.0001905
Mean motion
13.15549242 rev/d
Perigee alt
1,200.3 km
Apogee alt
1,203.2 km
Semi-major
7,579.9 km
B*
3.7274e-4
RAAN
243.5861°
Arg perigee
84.9195°
Mean anomaly
275.2153°
Rev number
36,171

§ Raw data

ONEWEB-00061 44061U 19010E   26246.45387683  .00000153  00000+0  37274-3 0  99942 44061  87.8971 243.5861 0001905  84.9195 275.2153 13.15549242361716

JSON: /api/v1/satellites/44061 · /tle

For live sub-satellite position, see the globe view (requires WebGL).

§ Visibility from observer

Set your observer location to see the next 7 days of passes ≥ 10°. The values pass through the URL so the page stays shareable.

No JS? Fill the form by hand. The geolocation button needs JavaScript.